Riverside March, CA

7:19 AM PDT on March 28, 2017 (GMT -0700)
March Air Reserve Base

Weather History for KRIV - July, 2013

Change the Weather History Date:

Tuesday, July 16, 2013

  Actual Average Record
Temperature  
Mean Temperature 76 °F -  
Max Temperature 93 °F 90 °F 105 °F (2003)
Min Temperature 59 °F 60 °F 51 °F (2012)
Cooling Degree Days 10    
Growing Degree Days 26 (Base 50)    
Moisture  
Dew Point 42 °F    
Average Humidity 33    
Maximum Humidity 59    
Minimum Humidity 12    
Precipitation  
Precipitation 0.00 in - - ()
Sea Level Pressure  
Sea Level Pressure 29.90 in    
Wind  
Wind Speed 5 mph (NW)    
Max Wind Speed 17 mph    
Max Gust Speed -    
Visibility 10 miles    
Events      
Averages and records for this station are not official NWS values.
T = Trace of Precipitation, MM = Missing Value Source: NWS Daily Summary

Daily Weather History Graph

Daily Weather History Graph

Search for Another Location

Airport or City:

Trip Planner

Search our weather history database for the weather conditions in past years. The results will help you decide how hot, cold, wet, or windy it might be!

Date:

Astronomy

Jul. 16, 2013 Rise Set
Actual Time 5:50 AM PDT 7:59 PM PDT
Civil Twilight 5:21 AM PDT 8:28 PM PDT
Nautical Twilight 4:47 AM PDT 9:02 PM PDT
Astronomical Twilight 4:09 AM PDT 9:40 PM PDT
Moon 1:52 PM PDT (7/16) 12:14 AM PDT (7/16)
Length of Visible Light 15h 06m
Length of Day
14h 09m
First Quarter, 57% of the Moon is Illuminated
Jul 16
First Quarter
Jul 22
Full
Jul 29
Last Quarter
Aug 6
New
Aug 14
First Quarter

Hourly Weather History & Observations

Time (PDT) Temp. Dew Point Humidity Pressure Visibility Wind Dir Wind Speed Gust Speed Precip Events Conditions
12:58 AM 64.9 °F 43.5 °F 46% 29.86 in 10.0 mi WNW 3.5 mph - N/A   Clear
1:58 AM 61.9 °F 44.2 °F 52% 29.86 in 10.0 mi Calm Calm - N/A   Clear
2:58 AM 61.9 °F 44.8 °F 53% 29.89 in 10.0 mi West 4.6 mph - N/A   Clear
3:58 AM 62.2 °F 45.7 °F 55% 29.88 in 10.0 mi NW 3.5 mph - N/A   Clear
4:58 AM 60.3 °F 45.9 °F 59% 29.85 in 10.0 mi West 2.3 mph - N/A   Clear
5:58 AM 59.4 °F 43.9 °F 57% 29.87 in 10.0 mi Calm Calm - N/A   Clear
6:58 AM 65.3 °F 43.9 °F 46% 29.89 in 10.0 mi Calm Calm - N/A   Clear
7:58 AM 70.5 °F 44.8 °F 40% 29.91 in 10.0 mi Calm Calm - N/A   Clear
8:58 AM 77.0 °F 44.4 °F 31% 29.91 in 10.0 mi Variable 1.2 mph - N/A   Clear
9:58 AM 81.9 °F 42.6 °F 25% 29.90 in 10.0 mi West 5.8 mph - N/A   Clear
10:27 AM 82.4 °F 42.8 °F 25% 29.95 in 10.0 mi Variable 3.5 mph - N/A   Light Drizzle
10:58 AM 84.9 °F 39.6 °F 20% 29.92 in 10.0 mi North 3.5 mph - N/A   Scattered Clouds
11:58 AM 87.8 °F 36.0 °F 16% 29.91 in 10.0 mi North 6.9 mph - N/A   Clear
12:58 PM 90.3 °F 37.0 °F 15% 29.90 in 10.0 mi West 9.2 mph - N/A   Clear
1:58 PM 91.8 °F 37.6 °F 15% 29.89 in 10.0 mi WNW 9.2 mph - N/A   Clear
2:58 PM 92.7 °F 40.3 °F 16% 29.88 in 10.0 mi NW 11.5 mph - N/A   Clear
3:58 PM 92.7 °F 39.2 °F 15% 29.88 in 10.0 mi WNW 15.0 mph - N/A   Clear
4:58 PM 90.9 °F 32.2 °F 12% 29.87 in 10.0 mi NW 17.3 mph - N/A   Clear
5:58 PM 87.3 °F 34.7 °F 15% 29.88 in 10.0 mi NW 17.3 mph - N/A   Clear
6:58 PM 83.5 °F 39.6 °F 21% 29.88 in 10.0 mi WNW 16.1 mph - N/A   Clear
7:58 PM 78.6 °F 44.2 °F 30% 29.91 in 10.0 mi NW 8.1 mph - N/A   Clear
8:58 PM 74.7 °F 41.4 °F 30% 29.93 in 10.0 mi NW 8.1 mph - N/A   Clear
9:58 PM 72.0 °F 43.5 °F 36% 29.96 in 10.0 mi NW 8.1 mph - N/A   Clear
10:58 PM 68.0 °F 47.5 °F 48% 29.97 in 10.0 mi West 6.9 mph - N/A   Clear
11:58 PM 68.0 °F 49.5 °F 51% 29.97 in 10.0 mi NNW 2.3 mph - N/A   Clear